Home > Weather > Kuujjuaq > Past weeks

Flag for Canada Weather for the Past 2 Weeks in Kuujjuaq, Quebec, Canada

Now
19 °F

Passing clouds.


Feels Like: 11 °F
Forecast: 15 / 33 °F
Wind: 6 mph from South

Location: Kuujjuaq

Current Time: May 2, 2016 at 9:09:15 AM

Latest Report: May 2, 2016 at 8:00 AM


Visibility: 15 mi

Pressure: 30.31 "Hg

Humidity: 93%

Dew Point: 18 °F

Location of KuujjuaqLocation

Historic Weather in Kuujjuaq — Graph

°F

Kuujjuaq Temperature Yesterday

Maximum temperature yesterday: 34 °F (at 4:00 PM)
Minimum temperature yesterday: 19 °F (at 11:00 PM)
Average temperature yesterday: 29 °F

High & Low Weather Summary for the Past Weeks

 TemperatureHumidityPressure
High43 °F (Apr 20, 9:00 PM)100% (Apr 30, 4:00 AM)30.40 "Hg (Apr 30, 4:00 AM)
Low-8 °F (Apr 24, 5:00 AM)50% (Apr 27, 1:00 PM)29.41 "Hg (Apr 20, 10:00 PM)
Average18 °F76%30.07 "Hg
* Reported Apr 17 8:00 AM — May 2 8:00 AM, Kuujjuaq, Weather by CustomWeather, © 2016

Note: Actual official high and low records may vary slightly from our data, if they occured in-between our weather recording intervals... More about our weather records

Advertising

Kuujjuaq Weather History for the Previous 24 Hours

Scroll right to see more
 ConditionsComfort  
Time TempWeatherWind HumidityBarometerVisibility
8:00 AM
Mon, May 2
19 °FPassing clouds.6 mph93%30.31 "Hg15 mi
7:00 AM16 °FPassing clouds.2 mph93%30.33 "Hg15 mi
6:00 AM14 °FIce fog.No wind92%30.33 "Hg1 mi
5:00 AM14 °FIce fog.2 mph92%30.34 "Hg1 mi
4:00 AM12 °FIce fog.3 mph100%30.35 "Hg1 mi
3:52 AM12 °FIce fog.3 mph100%30.35 "Hg1 mi
3:00 AM12 °FFog.No wind100%30.35 "Hg15 mi
2:00 AM14 °FClear.No wind92%30.35 "Hg15 mi
1:00 AM16 °FClear.No wind100%30.36 "Hg15 mi
12:00 AM19 °FClear.No wind93%30.37 "Hg15 mi
11:00 PM
Sun, May 1
19 °FPassing clouds.6 mph100%30.38 "Hg15 mi
10:00 PM23 °FPassing clouds.2 mph93%30.39 "Hg15 mi
9:00 PM25 °FPassing clouds.3 mph86%30.40 "Hg15 mi
8:00 PM27 °FBroken clouds.8 mph80%30.40 "Hg15 mi
7:00 PM28 °FScattered clouds.7 mph74%30.39 "Hg15 mi
6:00 PM30 °FScattered clouds.9 mph69%30.39 "Hg15 mi
5:00 PM32 °FScattered clouds.9 mph64%30.39 "Hg15 mi
4:00 PM34 °FPartly sunny.6 mph60%30.38 "Hg15 mi
3:00 PM32 °FPartly sunny.7 mph69%30.39 "Hg15 mi
2:00 PM32 °FOvercast.7 mph69%30.39 "Hg15 mi
1:00 PM32 °FOvercast.6 mph69%30.39 "Hg15 mi
12:00 PM30 °FOvercast.10 mph75%30.39 "Hg15 mi
11:00 AM32 °FOvercast.10 mph69%30.40 "Hg15 mi
10:00 AM30 °FOvercast.7 mph75%30.39 "Hg15 mi
9:00 AM28 °FOvercast.6 mph80%30.39 "Hg15 mi
Weather by CustomWeather, © 2016

See weather overviewHow to use our weather pages